CAPE
1017 976 896 762 703 671 652 636 648 683 658 652 668 616 776 1064 1306 1330 1420 1482 1505 1538 1628 1693 1959 2248 2369 2178 2212 2054 1956 1593 1600 1458 1472 1510 1483 1472 1656 1726 1777 1708
999 976 906 824 700 763 667 637 645 628 595 632 667 640 718 916 1090 1212 1295 1389 1464 1435 1397 1450 1596 1887 2104 2197 2036 1937 1851 1942 1746 1841 1682 1730 1786 1695 1687 1604 1514 1574
991 982 967 907 776 702 700 607 605 647 695 717 737 773 786 981 971 1085 1184 1259 1261 1323 1259 1278 1326 1542 1620 1746 1802 1922 1923 1809 1856 1956 2236 1857 1806 1698 1797 1805 1824 1723
1012 1029 990 903 762 666 723 702 730 795 828 851 859 969 1020 1150 1122 1122 1108 1768 1130 1172 1191 1240 1527 1703 1839 1798 1846 1870 1897 1976 1936 2006 2220 2335 2104 1957 1953 1808 1932 1912
974 981 935 877 870 791 775 746 778 885 979 963 950 1038 1395 1364 1555 1500 1412 1322 1228 1005 928 1027 1117 1426 1786 1929 1965 1980 1949 2001 2020 2086 2133 2184 2225 2265 2120 2063 2152 2057
996 908 894 928 1054 968 861 816 812 892 1045 1100 1057 1243 1223 1297 1551 1686 1704 1507 1496 1373 1226 1155 1218 1426 1651 1772 1841 1962 2003 2108 2128 2097 2137 2175 2146 2099 2225 2292 2160 2086
1124 1066 983 1048 1160 1142 1048 972 950 1176 1066 1171 1279 1236 1264 1324 1479 1663 1693 1668 1575 1791 1700 1703 1648 1763 1878 1964 1855 1898 1856 1995 2092 2121 2210 2178 2222 2125 2236 2267 2237 2150
1138 1234 1210 1170 1283 1334 1333 1168 1065 1140 1166 1251 1280 1331 1348 1358 1393 1486 1631 1544 1509 1554 1704 1699 1605 1580 1770 2087 2156 2074 2036 1994 2059 2151 2188 2213 2109 2308 2376 2319 2193 2018
1012 1335 1385 1378 1424 1464 1485 1426 1287 1103 1284 1344 1320 1376 1585 1456 1409 1412 1423 1432 1464 1549 1509 1612 1594 1603 1552 1828 2051 2115 2175 2167 2383 2343 2257 2179 2203 2324 2272 2113 1899 1969
1401 1430 1596 1621 1574 1554 1559 1562 1494 1380 1451 1466 1477 1451 1545 1718 1576 1613 1514 1492 1502 1691 1621 1631 1651 1565 1529 1468 1714 1889 2003 2027 2114 2275 2263 2094 2180 2118 1966 1927 1962 1908
1658 1478 1346 1309 1649 1656 1642 1616 1596 1565 1603 1679 1621 1643 1662 1690 2030 1744 1703 1610 1670 1686 1804 1779 1740 1604 1478 1380 1421 1482 1546 1605 1570 1509 1307 1354 1553 2041 2222 2198 1981 1983
1685 1527 1413 1330 1623 1790 1719 1690 1671 1609 1646 1513 1556 1732 1694 1637 1399 1434 1715 1706 1654 1763 1769 1761 1660 1658 1643 1574 1603 1566 1616 1675 1641 1410 1184 983 865 1577 2040 2192 2172 1901
1470 1444 1481 1719 1819 1652 1723 1560 1526 1468 1467 1571 1500 1646 1641 1527 1594 1620 1690 1846 1757 1709 1681 1710 1698 1721 1836 1838 1704 1698 1548 1512 1230 1045 1098 991 887 1201 1578 1776 1831 1823
1774 1501 1351 1384 1602 1721 1601 1631 1631 1501 1587 1578 1593 1745 1698 1572 1575 1626 1657 1810 1782 1739 1742 1687 1670 1703 1644 1598 1546 1452 1481 1360 1040 816 759 935 944 1097 1415 1616 1686 1614
2056 1957 1839 1844 1808 1766 1611 1517 1445 1322 1347 1498 1629 1638 1566 1560 1520 1474 1441 1540 1557 1514 1384 1417 1496 1485 1540 1509 1466 1378 1253 1137 828 829 912 780 951 1070 1259 1639 1807 1824
2157 2216 2194 2112 1891 1650 1467 1230 1215 1247 1258 1188 1368 1566 1445 1544 1558 1334 1268 1324 1241 1199 1201 1277 1356 1460 1441 1458 1446 1235 1283 1053 860 860 718 888 1146 1395 1602 1671 1665 1668
2190 2141 2017 1782 1384 1279 951 689 831 1096 1178 1401 1632 1498 1468 1609 1554 1438 1174 1118 1166 1171 1239 1262 1310 1351 1283 1274 1342 1236 1126 1110 1054 936 917 1168 1233 1255 1449 1517 1518 1574
2040 1883 1683 1515 1453 1432 1134 834 789 971 1140 1230 1228 1223 1331 1412 1386 1271 1052 1140 1214 1155 1116 1151 1272 1304 1048 939 957 955 941 1002 1118 1048 1138 1145 1076 1185 1301 1373 1324 1486
1570 1408 1346 1371 1495 1490 1394 1347 1312 1312 1334 1307 1275 1106 1056 1165 1091 972 912 995 1192 1134 1078 1168 1184 1021 831 863 921 968 984 1103 1238 1281 1298 1247 1213 1288 1326 1272 1272 1293
1412 1422 1471 1484 1580 1437 1412 1452 1440 1448 1415 1342 1275 1180 1063 1177 1167 974 899 1075 1169 1091 999 870 787 737 790 902 943 969 1024 1164 1274 1283 1272 1214 1220 1225 1219 1217 1161 1074
1603 1607 1673 1699 1466 1382 1579 1504 1464 1402 1389 1337 1149 1054 988 986 1135 980 979 1034 1015 926 824 764 756 798 864 959 1054 1154 1207 1234 1144 1090 1118 1144 1096 1059 1048 1142 1056 926
1881 1957 2050 2084 1670 1296 1314 1592 1355 1409 1385 1266 1033 922 932 912 918 896 809 773 811 870 882 896 1021 954 926 1033 1117 1130 1055 1038 1040 1056 1093 1033 968 936 883 823 750 680
2252 2340 2327 2265 2037 1934 1601 1548 1412 1234 1160 1079 1076 984 935 874 813 832 841 791 870 918 946 881 1024 939 956 972 1014 1031 1081 1025 1004 1027 990 892 814 716 587 483 396 441
2404 2427 2407 2244 2059 1847 1819 1650 1499 1186 1367 1124 1110 973 930 938 875 856 906 802 941 1042 1169 1051 860 934 936 986 1104 1156 1103 1045 920 816 707 568 458 386 173 56 256 710
2554 2538 2485 2395 2162 2077 1939 1789 1737 1528 1304 937 1103 984 989 951 834 851 833 909 920 1028 1034 910 821 768 797 835 796 794 686 610 555 476 335 253 174 0 0 1 9 187
2580 2568 2493 2456 2403 2198 2059 1844 1810 1515 1381 1377 1290 1187 1016 725 619 503 537 632 644 794 759 791 816 783 708 812 672 533 450 366 290 188 47 0 0 0 1 2 4 18
Wind_Speed
9 9 7 7 7 6 6 7 7 6 5 5 6 5 6 5 7 8 7 8 7 8 7 6 7 7 8 9 10 11 11 10 10 10 10 11 9 10 9 9 9 10
10 10 9 8 8 8 8 8 7 5 4 4 4 5 6 8 8 9 9 8 9 7 7 7 7 7 8 8 10 11 11 11 10 12 12 11 10 10 9 8 9 11
13 13 11 9 8 7 8 8 7 5 5 4 5 7 7 9 9 9 10 9 8 8 7 8 8 8 8 7 9 10 11 11 10 12 13 11 12 11 10 10 11 11
15 14 13 11 10 9 11 11 8 7 7 8 7 8 9 10 10 11 11 11 10 9 9 10 9 10 9 9 10 10 10 11 11 14 14 14 13 12 12 12 13 13
16 15 15 14 13 12 13 12 11 10 10 8 10 11 12 13 13 13 13 13 13 11 11 11 11 10 11 11 11 10 11 11 13 15 15 13 13 13 14 14 14 13
19 18 17 16 15 15 15 14 14 14 13 12 10 13 13 15 15 15 14 14 14 13 12 13 12 12 12 12 13 12 12 12 14 15 15 13 13 15 15 15 15 14
20 20 18 19 17 17 17 17 18 18 16 14 15 13 16 17 17 16 16 15 16 15 14 13 13 13 14 14 14 13 13 13 15 16 15 14 14 15 15 15 15 14
21 22 21 21 19 18 18 19 19 19 19 19 16 16 18 18 18 19 18 18 18 18 17 16 15 15 15 15 13 14 14 15 15 15 15 14 15 14 15 16 16 15
20 21 21 20 19 20 19 20 21 21 22 20 19 21 20 19 21 22 21 20 18 18 18 18 17 16 16 15 14 14 14 15 15 15 14 14 14 13 14 16 16 15
17 19 20 20 20 20 19 21 24 25 25 23 23 25 23 22 23 25 25 22 19 19 18 19 19 18 18 17 16 15 15 16 16 16 15 14 13 13 13 15 15 16
28 28 27 25 21 23 23 25 26 27 28 27 27 27 26 25 24 26 25 24 21 19 18 18 18 19 18 19 20 21 21 21 20 20 18 15 12 13 13 14 16 15
21 22 21 19 20 23 30 36 37 37 36 35 33 32 32 31 27 23 20 21 21 20 19 18 19 19 19 20 23 25 25 22 19 18 17 15 15 13 13 14 15 16
22 25 26 27 30 34 36 36 35 38 37 36 35 31 26 23 26 21 16 18 20 21 20 20 20 20 21 22 23 22 18 16 16 17 17 17 13 12 13 14 15 16
21 26 31 34 34 31 26 33 40 42 36 30 28 29 31 29 25 20 19 19 20 20 21 21 21 21 20 20 19 18 17 14 14 15 18 17 16 14 13 14 15 16
26 30 29 31 32 30 33 40 43 38 33 35 33 31 32 31 29 26 24 20 20 20 20 18 17 17 19 19 18 16 16 16 15 17 19 17 12 11 12 12 15 16
28 26 26 29 27 24 30 36 39 36 38 38 35 33 31 30 28 25 22 19 19 20 21 19 17 18 16 13 13 14 16 18 17 16 17 16 15 14 12 13 15 16
23 23 25 23 21 22 27 29 31 31 32 33 34 33 30 28 26 25 22 21 20 20 20 18 17 17 13 12 13 13 16 18 17 16 15 16 15 14 13 13 15 15
14 17 18 18 18 18 22 25 24 20 19 22 25 27 27 25 23 24 24 21 20 18 18 17 17 16 13 13 16 15 15 18 20 19 19 16 15 16 15 16 15 15
11 12 12 13 14 17 21 23 20 15 12 14 17 22 23 22 22 22 20 20 19 18 16 17 15 16 16 17 19 20 17 17 18 20 18 15 15 15 16 14 14 14
10 11 11 11 14 16 15 15 14 11 10 12 14 16 18 19 19 19 20 19 18 18 17 17 17 17 18 19 20 19 18 15 14 16 17 17 15 16 17 16 15 14
8 9 10 11 11 6 5 6 9 10 9 10 11 13 15 19 19 19 20 19 18 15 15 17 17 19 16 16 15 14 13 13 17 16 16 15 15 16 15 14 12 11
8 7 8 10 8 6 4 8 10 11 10 11 12 14 17 18 15 15 14 13 14 15 16 16 17 16 16 13 11 12 15 15 14 13 12 13 13 14 14 12 10 9
5 7 8 10 11 10 7 9 10 11 8 8 8 11 13 12 12 14 15 16 17 15 14 13 14 15 15 14 13 13 13 12 10 10 12 13 13 13 12 10 10 9
4 6 7 8 9 8 6 3 5 4 5 5 5 8 11 12 15 15 15 13 10 11 10 10 10 10 11 12 12 10 10 11 10 11 12 12 12 11 9 nan 10 7
3 4 5 5 5 5 3 1 2 3 7 10 11 7 9 9 8 9 10 9 7 5 2 5 7 8 9 10 9 8 9 9 9 11 10 10 9 nan nan nan nan 12
6 5 4 3 3 3 3 2 3 4 4 4 6 7 8 9 9 9 9 8 7 6 8 7 6 7 7 7 8 9 8 9 9 9 nan nan nan nan nan nan nan nan
Wind_Direction
244 243 244 247 247 239 236 236 228 223 213 223 236 241 253 247 248 255 258 255 255 248 244 245 248 252 252 259 262 262 262 259 250 250 250 248 242 247 244 247 250 251
245 247 241 244 243 239 235 237 236 235 222 231 233 241 242 245 254 259 260 261 257 252 246 245 249 252 251 250 257 261 257 254 248 242 248 249 242 241 238 241 242 243
244 243 244 248 246 249 253 247 247 246 242 243 247 247 248 247 252 259 258 262 259 254 253 250 249 249 250 248 251 253 254 257 249 245 247 248 241 241 233 233 234 242
243 244 244 241 238 241 248 255 254 252 249 253 259 260 259 251 252 254 253 254 256 251 250 250 248 243 245 246 250 247 252 252 245 246 244 238 237 237 234 234 233 233
243 242 241 239 237 238 244 251 258 259 264 271 265 262 254 252 251 248 249 248 252 253 250 246 242 240 241 242 247 247 247 245 246 246 244 238 235 238 234 236 236 233
237 238 239 239 241 242 243 246 249 256 261 266 273 263 257 253 250 250 247 248 248 251 249 243 240 238 241 242 242 241 242 242 243 247 244 239 236 238 236 239 240 237
239 238 237 236 235 239 241 243 244 249 255 257 261 266 260 251 248 249 250 248 250 248 246 245 241 238 239 241 243 240 239 239 242 247 248 242 241 242 242 242 242 240
230 235 235 235 236 238 239 241 244 246 249 252 257 260 260 251 244 242 244 247 249 249 245 241 238 236 235 239 243 244 241 239 241 248 251 249 249 247 249 247 248 247
218 233 240 242 241 240 243 246 247 246 247 248 249 252 254 250 243 240 242 245 246 246 244 237 235 232 234 239 245 251 249 244 242 247 251 253 254 251 250 252 254 253
242 235 240 245 244 241 245 248 247 247 245 244 245 245 247 244 240 238 240 241 241 240 239 234 234 233 236 239 246 250 250 245 241 242 245 251 254 253 249 254 257 254
241 239 229 224 230 236 239 243 245 244 241 241 242 241 241 242 240 239 242 243 240 240 238 236 236 239 240 241 240 241 242 240 237 237 234 226 231 240 247 253 257 256
256 259 256 256 251 246 241 238 236 236 233 234 236 236 237 238 243 240 241 246 246 245 245 243 243 243 244 244 242 237 232 227 230 234 234 226 222 225 240 248 253 256
252 254 251 247 242 241 244 251 249 244 239 243 249 256 262 264 264 263 254 251 250 252 253 255 255 252 250 249 247 245 243 239 235 235 238 235 228 227 235 245 251 252
260 258 255 255 260 262 263 260 258 256 255 256 257 257 256 258 259 259 257 254 254 257 254 252 254 255 255 257 257 256 255 250 248 249 251 246 229 224 234 245 249 251
260 259 261 261 259 259 254 258 262 262 258 252 248 249 249 250 249 249 248 247 249 252 252 251 255 257 258 260 262 262 255 248 248 254 258 257 252 240 239 246 251 250
268 268 264 260 262 263 263 269 273 268 256 249 245 244 246 248 248 247 247 248 250 253 255 258 260 257 262 277 276 262 259 253 251 255 259 258 258 252 247 251 253 252
271 271 267 265 262 261 268 279 282 272 257 247 242 240 240 240 241 243 245 247 251 258 263 264 263 259 270 259 261 277 267 261 255 247 246 249 255 256 251 247 250 249
282 280 276 270 265 268 275 282 285 277 259 247 239 234 233 234 235 240 246 248 253 258 258 260 259 257 261 259 268 272 273 265 257 243 236 241 251 255 251 246 242 243
309 297 285 275 274 273 273 277 282 277 260 247 234 227 227 226 229 236 243 248 251 251 251 253 252 251 258 265 271 276 280 275 254 243 240 244 248 248 247 246 248 245
304 289 283 278 266 257 252 260 273 268 251 248 241 234 229 224 224 232 237 241 243 244 245 250 250 255 263 267 272 277 278 268 252 249 247 242 240 243 243 245 248 249
293 284 281 273 272 273 251 246 263 259 252 249 245 241 240 234 227 227 231 232 234 238 243 245 243 253 260 265 267 269 266 262 247 245 241 239 237 242 244 245 248 260
294 280 274 270 268 277 298 283 260 250 238 230 229 234 238 236 231 232 230 230 233 239 240 238 230 237 243 246 256 257 252 234 232 234 235 234 234 231 233 235 239 241
306 286 273 274 283 298 291 264 256 245 239 234 226 228 229 227 224 221 221 223 227 231 232 229 224 218 225 233 237 240 233 220 221 224 227 229 226 224 224 221 222 225
330 300 305 298 292 294 293 272 248 237 237 220 215 211 213 203 203 209 213 218 216 217 214 218 211 212 218 222 227 225 219 220 217 225 227 225 224 228 231 nan 214 237
284 295 303 301 307 302 304 341 140 175 214 203 200 200 198 180 178 181 198 202 200 201 232 213 201 195 206 211 216 222 215 211 220 226 232 232 235 nan nan nan nan 241
239 254 260 269 261 238 223 183 160 152 164 195 191 189 197 178 177 179 187 186 184 174 176 193 192 187 192 199 203 213 221 222 216 238 nan nan nan nan nan nan nan nan